CAPE
2922 2202 2487 2648 2507 2601 2897 2249 2280 3644 4562 4195 3102 2588 3864 4406 3666 3658 3348 4148 2901 2612 1798 1104 3996 3704 4100 4244 3416 2577 2833 3042 2336 2369 2883 2254 2842 4607 2490 1735 1593 1436 1498 1682 1717 1811 1866 2099 2596 2708 2804 3084 3203 3391 3358 3474 3480 3318 3145 2762 2253 2061 2120 2096 1866 1551 1347 1396 1197 566 0 0 20 114
3456 3358 2234 2048 3286 2968 2375 2301 2204 2678 3238 3451 3183 3648 3038 3884 3942 3860 3894 3590 2953 3044 2157 1661 2131 4073 2986 2582 4973 3274 3170 1752 2128 2664 2956 2687 2707 2720 1613 1449 1336 1376 1490 1576 1722 1760 1821 1967 2020 1908 2172 2209 2220 2369 2496 2710 2992 3251 3232 2938 2486 1977 1998 2092 1949 1652 1374 1266 1318 860 263 0 1 9
3158 3418 3109 3864 3884 3446 2723 2862 2069 2794 2793 4039 3050 4174 4246 5106 5415 5043 3982 3384 4665 2721 3037 2760 2228 2308 3234 2562 2463 2249 2356 2206 2708 2556 2686 2780 2409 1644 1560 1321 1198 1241 1408 1638 1591 1501 1415 1338 1091 1098 1054 1088 1030 1224 1547 2163 2324 2557 2740 2870 2596 2058 1848 1971 1968 1784 1450 1232 1218 1144 571 0 0 2
2768 3197 3027 3474 3309 3409 3310 3216 3317 3508 3512 2719 2765 3637 4450 3275 4894 4436 4655 3375 3346 3970 3302 3026 2874 2274 2405 2938 2894 2982 2587 1630 1514 3414 3130 3647 2659 2613 2416 2561 1964 1591 1534 1609 1475 1100 866 465 418 485 603 666 913 1178 1440 2046 2270 2181 2338 2395 2509 2232 1764 1756 1843 1787 1574 1210 1108 1181 824 191 0 0
2734 3636 3588 3479 3568 3772 3726 3588 3010 2301 2705 3409 2793 3580 4215 3546 4203 3712 3682 3433 3658 4344 3892 3594 3106 2556 2161 1761 2385 2627 2550 2166 2851 1705 1844 2557 2062 1681 1220 751 1617 1349 1544 1766 1082 688 360 232 212 223 259 384 616 1065 1384 1503 1566 1627 1732 1855 1874 1999 1721 1522 1575 1662 1624 1321 1066 1050 1066 632 115 0
2816 3067 3905 3762 3319 3799 3457 2744 2116 2078 1715 2088 2080 3282 2508 3670 3855 4044 3806 3912 4044 3790 3898 4180 4000 3024 2499 2218 3070 2472 2450 2298 2428 2118 1717 1227 982 909 827 438 3390 2097 1662 1157 770 454 278 175 91 83 124 228 512 723 838 846 762 798 983 1042 1137 1385 1474 1291 1254 1312 1482 1462 1154 947 1042 892 406 0
3360 3194 3373 3214 3172 2157 2708 3156 2374 1865 1491 2127 2626 2181 2444 3488 3514 4441 5302 4760 4640 4259 4096 3995 3162 2781 3268 2877 2673 2714 2550 2333 1956 2544 1926 802 535 572 943 742 556 515 1296 1056 284 99 159 104 54 34 32 59 168 231 496 655 752 807 782 330 130 408 926 1040 1022 1020 1109 1322 1260 960 874 948 770 74
2915 2698 3139 2580 2426 2586 3036 3166 3299 3211 2249 2507 4653 2846 3518 3565 3314 4096 3443 4638 4590 4173 4029 4271 3746 3485 3336 3212 2796 2362 1775 1748 2194 1986 1556 1746 1464 1447 1177 725 498 783 343 741 158 32 56 48 12 0 0 0 0 0 548 704 793 850 856 757 401 0 59 713 803 798 823 1006 1148 939 778 876 874 494
3424 3269 2816 2738 2980 3112 2984 2994 2860 2396 2678 2400 2472 2882 2424 3666 3582 3917 4047 4481 3846 4039 4116 3818 3472 3783 3509 3207 3036 2512 1952 2060 1803 2992 2812 2176 1706 1897 1544 645 514 452 62 40 127 80 38 20 4 0 0 0 89 504 688 808 877 907 903 823 764 641 616 460 229 594 602 684 906 957 780 692 799 658
3158 2922 3206 3148 2793 3040 2835 2513 2597 2940 3193 3213 2942 2986 3596 3288 3209 4339 4082 4276 4435 4092 3812 3458 3100 3446 3309 2520 2750 2687 2608 2316 1490 1507 1982 2321 2551 2566 2460 1169 538 520 366 190 30 8 4 98 108 20 106 688 778 837 955 1048 1026 953 947 907 815 805 778 645 205 0 0 0 603 797 747 576 652 719
2214 2370 2326 2647 2617 2539 2729 2368 2246 2435 2592 2172 2168 2928 3232 2966 3210 3304 3336 3685 3728 3300 3084 2854 2601 2282 2534 2323 1546 1528 1772 1800 1870 1558 2070 2463 2650 2638 2556 2458 2040 790 457 451 241 118 12 7 212 982 1164 1073 1162 1221 1308 1349 1325 1098 980 965 856 853 849 572 0 0 0 0 0 160 599 562 513 614
2391 2450 2331 1699 1881 2389 2661 2424 2481 2484 2378 2672 2393 2361 2869 3474 3396 3355 3213 3575 3509 3126 2722 2508 2363 2592 2394 2218 2240 2267 1942 2134 3278 3899 771 336 2154 2366 2464 1498 1316 1392 1369 1142 843 674 629 1218 1507 1611 1646 1677 1582 1605 1588 1523 1463 1309 1092 995 908 895 822 634 0 0 0 0 0 0 0 0 57 496
2606 2414 1902 1388 1402 2026 2902 2042 2342 2811 2637 2261 2941 3608 3318 3336 3184 3371 3146 3038 3447 3640 3130 2877 2953 2620 2322 2446 2658 2797 2623 1216 653 654 1857 2082 1828 1637 1366 1668 2037 1934 1677 1487 1166 1224 1858 1528 1706 2013 1902 1868 2047 2179 1830 1438 1217 1207 1205 1014 936 915 978 860 160 0 0 0 0 0 0 0 0 0
2321 1940 1494 1227 1370 1161 1108 1292 2885 2931 1993 1561 1373 2015 2510 3541 3809 3728 3686 3462 3186 3166 3295 2962 2395 2074 1616 1059 559 772 783 534 1096 2442 2544 2443 2394 2315 2654 2617 2610 2771 2272 2022 2350 2607 2206 1910 1872 1936 1832 1551 1435 1269 1289 1664 1357 1124 1078 1016 866 1033 1162 1100 686 0 0 0 0 0 0 0 0 0
2681 2156 1769 1142 1214 2808 2518 4029 3648 2285 1984 2137 1605 1599 1908 2651 2869 2948 2936 2730 2612 3040 2921 2553 2369 1546 1505 1846 1733 1335 582 1319 2897 2826 2760 2609 2836 3236 3164 3080 2839 3502 3025 2882 2850 2826 2842 2570 2277 2063 1900 1706 1551 1323 3519 2114 1592 1421 1007 904 1028 1196 1238 1238 852 0 0 0 0 0 0 0 0 0
2088 1695 1236 996 578 3382 2929 2787 3902 2981 2387 1846 1920 1995 1880 1882 2124 2110 2208 2290 2598 2658 2306 2352 2353 2091 1856 2000 1821 1416 1466 2954 2522 2948 3241 3366 3642 3652 3420 3151 2921 2988 3423 3399 2887 2584 2595 2716 2672 2501 2292 2049 1927 1572 2673 1600 1444 1311 1398 1478 1531 1530 1473 1324 1060 0 0 0 0 0 0 0 0 0
1970 2842 3192 2451 1678 1100 832 1497 2770 4014 3529 2691 1802 1772 2073 2419 2217 1596 1283 1386 2177 2506 2547 2048 1856 1820 1760 2152 2637 2746 2343 2600 3084 3578 3582 3564 3706 3643 3358 3044 2682 2624 2845 2634 2673 2689 2830 2979 2884 2660 2497 2356 2240 2077 1892 1840 1604 1347 1560 1730 1833 1840 1784 1770 1524 1293 1131 55 0 0 0 0 0 0
1105 2278 1917 2036 2285 2455 2940 3096 3137 3047 4536 4157 3557 3294 3137 3129 3260 3124 1882 1578 1481 1464 1598 1480 1551 1916 2560 2660 2646 3139 3463 3317 3405 3692 3570 3374 2850 2578 2414 2365 2342 2474 2644 2606 2561 2718 3114 3278 2815 2348 2027 2052 2056 2219 1860 1658 1627 1248 1378 1506 1596 1836 1906 1850 1665 1551 1486 1412 974 92 0 0 0 0
1328 1220 1563 1996 2303 2662 3203 3694 4494 2734 2687 2957 3264 4094 4267 4030 4070 3842 3920 3732 3189 2143 1366 1571 1536 1672 1956 2354 2655 2920 3943 3496 2793 2732 2759 2756 2624 2612 2599 2626 2782 2860 3073 3253 3514 3216 2581 2177 1650 1537 1420 1364 1523 1978 1912 1822 1753 1676 1542 1354 1645 1857 1904 1769 1738 1744 1674 1423 1279 1070 835 215 0 0
2160 1948 1159 1155 1512 2326 2861 1966 2303 2548 4238 3978 3688 3469 3416 2896 2693 1647 1574 1352 1408 1992 2611 2310 1900 1741 1502 1428 1312 904 1082 1686 2766 2379 2240 2284 2398 2540 2598 2628 2592 2486 2414 2219 2205 2097 1785 1776 1738 1892 1842 1990 2064 1905 1780 1720 1832 1674 1657 1676 1651 1761 1848 1896 1987 1959 1864 1687 1573 1662 1518 1253 897 0
1383 1584 2314 1714 1640 1978 2088 1695 2018 2278 2598 4047 3148 3884 3428 2938 2476 2332 2017 1885 1320 1432 1739 1185 743 912 1088 1436 1720 1824 1652 1713 1851 2072 2069 2110 2462 2716 2702 2547 2286 2295 2084 2002 2536 2299 2086 2304 1999 1883 2038 2064 1778 1891 1834 1907 2011 2313 2052 1890 1827 1675 1385 1543 2018 2120 1932 1812 1667 1698 1718 1530 1424 1280
1695 1603 2238 1744 859 1338 1283 1493 1698 1862 1880 2452 3182 3161 2974 2590 2130 2166 1730 1581 1969 2085 2452 2621 2505 2482 2448 2300 2290 2522 2666 2808 2475 2139 2060 2376 2522 2569 2165 2084 2368 2540 2419 2322 2739 2426 2321 2025 2133 2049 1964 1688 1947 1849 1980 2139 2319 2281 2825 2509 2182 1947 1750 1494 1342 1778 1948 1990 1898 1846 1820 1538 1485 1388
1887 1618 1454 1260 742 942 987 1282 1546 1633 1558 1329 1674 2072 2046 2006 1987 1812 1582 1650 1768 2047 2074 2260 2912 2758 2690 3279 3890 3382 3081 3112 2764 2468 2346 2402 2761 2290 2106 1978 1699 1800 2082 2675 2560 2127 2138 1938 2059 2068 1842 1406 1287 1632 2133 1962 2145 2417 2156 1871 2149 2334 2062 1716 1337 1476 1903 2111 2002 1877 1726 1518 1438 1346
1528 1358 1281 757 686 878 1149 1440 1514 1461 1388 1240 976 1114 1388 1600 1898 1520 1474 1318 1316 1561 1635 1842 1976 2252 2576 2931 2973 2765 2911 2878 2646 3992 3557 2835 2372 2095 1664 1593 1717 1692 1885 2416 2408 2146 2098 1947 2000 2029 1644 1486 1308 1374 1511 1737 2018 1984 1884 2029 2524 2741 2418 2158 2026 1982 1892 1913 1979 1916 1804 1661 1442 1386
1186 1128 1270 1232 926 856 994 1160 1325 1335 1282 1278 1238 1129 1122 1262 1080 916 755 831 910 834 1329 1642 1936 2254 2378 2356 2166 2279 2243 2068 2160 2726 2686 2326 2349 1850 1670 1620 1484 1331 1886 2430 2077 2008 1936 2073 2087 1883 2006 1716 1610 1545 1593 1599 1946 1954 1894 1822 1694 1972 2572 2802 2638 2232 2089 2085 1956 1813 1580 1550 1482 1454
1150 1020 960 994 1002 1014 1030 945 859 943 1036 1092 1109 1070 969 839 679 567 584 607 624 639 614 1128 1664 1747 1708 1377 1660 1813 1937 1686 1857 1956 2022 2234 2220 2079 1809 1670 1489 1463 1669 2370 2111 1958 1964 1988 2024 1794 1793 1704 1753 1646 1562 1501 1563 1908 1808 1650 1656 1927 2637 2353 2287 2669 2838 2298 1762 1572 1296 1221 1546 1622
1272 868 804 902 905 831 769 782 781 762 784 768 723 683 660 600 514 432 416 471 485 455 383 1424 2132 1566 1800 1739 1903 2031 1704 1486 1732 1558 1469 1546 1687 1900 2426 2041 1466 1665 2038 2596 2415 1933 1938 2031 1975 1904 1664 1552 1482 1454 1506 1510 1435 1494 1572 1500 1338 1290 1440 1706 2980 3138 2723 3102 2173 1732 1498 1496 1515 1521
748 486 504 504 526 578 632 628 661 654 632 601 542 464 411 337 291 240 205 198 221 464 1094 1444 1666 1933 1655 1590 1482 1373 1637 1886 2046 2048 1535 1367 1206 1456 2156 1880 1931 2324 2636 2660 2319 1994 2302 2458 2310 2184 2250 1843 1619 1524 1368 1284 1259 1382 1550 1474 1207 1305 1608 1661 1702 1882 1957 2366 2687 1973 1690 1844 1926 1990
380 332 282 241 256 298 320 300 299 262 244 248 252 232 205 136 94 166 335 792 1076 1465 1200 1123 952 507 567 928 1085 967 1266 1194 1356 1695 1409 961 1098 1149 1267 1599 1916 2246 2353 2183 2175 2270 2410 1315 1978 1938 2256 2273 1618 1494 1362 1226 1178 1356 1454 1228 1162 1317 1153 1145 1701 2253 2560 2183 1952 2473 2540 2266 2204 2188
102 128 151 131 145 140 130 116 181 380 722 357 165 50 60 120 182 362 914 1027 1433 918 504 363 158 135 135 159 192 594 510 414 708 843 573 288 308 279 293 418 664 872 1040 1054 974 1261 3348 2752 2130 2284 2197 2002 1856 1410 986 804 938 1166 1310 1351 1392 1294 1155 1182 1260 1369 1638 2382 2638 2382 2244 2602 2517 2101
7 8 55 86 57 68 28 7 19 6 6 51 246 691 643 334 405 664 1551 871 412 209 132 4 0 0 18 69 204 112 96 244 430 252 148 93 58 41 103 203 311 370 592 628 548 1005 2471 2334 2872 2198 1847 1543 1285 1122 909 901 1108 1428 1729 1909 1904 1716 1494 1454 1462 1356 1636 2385 2521 2506 2575 2478 2089 2004
0 0 0 2 64 109 109 169 198 197 179 221 286 298 33 0 0 72 45 18 0 0 0 0 0 4 77 72 6 4 21 88 196 180 148 124 52 32 53 116 157 66 59 89 33 131 420 1607 1995 2172 2140 2050 1859 1656 1521 1584 1640 1747 1925 1917 2040 2381 2333 2155 1848 1739 1960 2134 1780 1702 2232 2867 2924 2741
0 0 0 0 1 262 350 297 362 345 911 848 251 0 0 0 0 0 0 0 0 0 0 0 0 0 0 0 0 0 2 56 42 118 65 55 52 132 126 83 10 0 0 0 0 0 0 0 22 28 2 16 96 734 1652 1878 1743 1637 1592 1866 1746 1262 1192 1672 1814 1802 1902 1765 1754 2000 2084 2260 2436 2507
0 0 2 86 121 500 322 0 14 0 0 0 0 0 0 0 0 0 0 0 0 0 0 0 0 0 0 0 0 0 0 0 0 0 0 18 56 22 6 2 2 4 2 1 0 0 0 0 0 0 0 0 0 0 104 440 921 1359 2142 1711 1174 1022 1277 1254 862 541 269 192 87 43 70 243 802 1510
5 14 6 40 169 78 2 0 16 5 5 2 0 0 0 0 0 0 0 0 0 0 0 0 0 0 0 0 0 0 0 0 0 0 0 0 0 0 0 0 0 0 0 0 0 0 0 0 0 0 0 0 0 2 81 402 1194 1126 70 0 12 0 0 0 0 0 0 0 0 0 0 6 98 381
0 1 0 10 72 1 1 0 0 0 0 0 0 0 0 0 0 0 0 0 0 0 0 0 0 0 0 0 0 0 0 0 0 0 0 0 0 0 0 0 0 0 0 0 0 0 0 0 0 0 0 0 0 0 0 298 0 0 0 0 0 0 0 0 0 0 0 0 0 0 0 0 47 230
0 0 0 0 1 0 2 10 5 3 0 0 0 0 0 0 2 0 0 5 4 0 0 0 0 0 1 0 0 0 0 0 0 0 0 0 0 0 0 0 0 0 0 0 0 0 0 0 0 0 0 0 0 0 0 0 0 0 0 0 0 0 0 0 0 0 0 0 0 14 30 78 173 270
0 0 0 0 0 0 0 0 0 0 0 0 0 0 0 0 3 7 0 1 0 0 0 0 0 0 1 0 4 4 4 8 4 2 0 1 0 0 1 0 0 0 0 0 0 0 0 0 5 6 13 0 0 0 0 0 0 0 0 0 0 0 0 0 0 0 0 0 6 56 70 29 26 37
8 16 5 0 0 0 0 0 0 0 0 0 0 0 0 0 0 0 0 1 5 3 0 0 2 4 6 18 15 12 11 10 10 6 6 4 8 6 6 5 0 0 0 0 0 0 8 8 5 16 1 0 0 0 0 0 0 0 0 0 0 0 0 0 2 0 0 0 0 0 0 0 0 0
36 28 7 4 9 5 0 0 0 0 0 0 0 0 0 0 0 0 0 0 0 0 8 16 20 15 25 27 13 7 8 12 10 8 7 4 2 0 0 0 0 0 0 0 0 0 0 1 2 0 0 0 0 0 0 0 0 0 0 4 0 0 2 0 0 0 0 0 0 0 0 0 0 0
27 37 14 16 19 20 12 13 6 2 0 0 0 0 0 0 1 0 0 1 16 25 17 28 38 20 8 5 3 4 4 4 3 2 0 0 0 0 0 0 0 0 1 1 1 2 1 2 9 8 13 12 10 9 5 4 0 0 0 0 0 0 0 0 0 0 0 0 0 0 0 0 0 0
0 0 0 0 0 0 0 14 29 13 10 2 1 0 0 0 0 0 2 10 14 5 5 2 0 0 0 0 0 0 0 0 0 0 0 0 0 0 0 0 0 0 0 0 0 0 0 4 12 10 4 3 6 4 2 0 0 0 0 0 0 0 0 0 0 0 0 0 0 0 0 0 0 0
0 0 0 0 0 0 0 0 0 0 4 4 2 1 0 0 0 0 0 2 5 1 0 0 0 0 0 0 0 0 0 0 0 0 0 0 0 0 0 0 0 0 0 0 0 1 1 1 1 4 6 2 2 2 1 2 4 4 2 0 0 0 0 0 0 0 0 0 0 0 0 0 0 0
0 0 0 0 0 0 0 0 0 0 0 0 0 0 0 0 0 0 1 4 5 2 0 0 0 0 0 0 0 0 0 0 0 0 0 0 0 0 0 0 0 0 0 0 0 0 0 1 6 2 0 0 1 2 2 0 0 1 2 0 0 0 0 0 0 0 0 0 0 0 0 0 0 0
0 1 2 0 0 0 0 0 2 2 1 0 0 1 0 0 1 2 2 1 1 4 4 5 2 0 0 0 0 0 0 0 0 0 0 0 0 0 0 0 0 0 0 0 0 0 0 0 0 0 0 2 3 0 2 4 6 2 0 0 0 0 0 0 0 0 0 0 0 0 0 0 0 0
Wind_Speed
1 2 4 4 4 3 6 5 7 8 5 5 6 4 10 8 8 7 6 9 8 8 6 6 7 6 8 6 6 5 4 5 4 4 6 8 8 19 22 22 24 21 16 14 12 13 14 15 17 19 20 21 23 25 26 26 25 25 26 28 28 28 28 28 27 26 25 25 25 23 nan nan nan 25
4 2 5 6 8 5 4 5 10 9 6 3 3 9 10 11 9 10 8 8 10 9 9 8 6 9 7 8 7 7 8 7 6 4 6 8 9 12 13 15 17 15 16 15 13 14 15 15 16 18 19 19 21 23 24 24 23 24 25 26 28 28 28 28 28 27 26 24 25 24 22 nan nan nan
2 5 5 7 6 7 6 8 6 9 9 7 7 6 11 8 8 11 12 10 9 9 10 10 6 5 10 8 8 5 5 3 5 5 7 9 10 12 15 17 18 17 17 17 15 15 15 15 16 18 18 20 21 23 23 23 22 22 23 25 26 27 27 27 28 28 27 25 24 25 23 nan nan nan
2 5 4 6 6 4 7 5 5 6 5 6 6 7 9 7 9 12 12 11 8 8 7 9 7 2 6 9 10 6 3 1 4 6 6 8 9 13 16 18 18 16 18 19 17 17 15 14 16 17 18 19 21 23 24 23 22 21 21 22 24 27 27 27 27 28 28 26 25 24 24 23 nan nan
3 3 4 5 4 4 3 4 3 4 7 9 5 5 6 6 9 10 11 10 7 6 8 8 7 3 3 3 5 6 5 4 4 5 7 9 11 14 14 13 13 18 19 18 17 16 13 13 16 17 18 19 20 22 22 22 22 21 20 21 22 25 27 28 27 26 27 27 25 24 24 23 22 nan
1 4 6 4 3 4 4 3 3 6 4 7 8 9 8 6 7 9 10 8 8 5 6 5 7 5 5 5 5 3 3 5 6 7 8 9 11 13 12 11 12 19 17 17 16 15 12 12 nan nan 17 18 20 21 21 21 21 21 20 21 21 23 26 27 27 26 25 26 25 24 23 23 23 nan
4 3 4 5 4 3 5 6 5 3 4 6 9 7 8 8 7 8 7 8 6 4 4 4 3 5 5 4 4 5 6 5 6 9 10 11 11 11 11 8 6 10 15 16 16 nan 10 12 nan nan nan nan 18 20 21 21 21 21 20 21 21 22 24 27 27 27 26 24 25 24 23 22 22 nan
5 4 4 4 3 3 3 4 4 4 5 4 6 4 5 4 6 9 9 8 8 6 4 4 5 5 5 6 6 8 8 8 10 12 13 14 13 11 9 8 5 9 15 16 15 nan nan nan nan nan nan nan nan nan 18 20 21 21 21 21 22 nan nan 26 27 28 27 25 24 24 22 21 22 22
3 3 2 3 5 3 3 3 3 2 2 5 5 4 3 3 6 4 6 8 8 7 7 5 6 6 7 7 8 9 9 10 12 15 17 16 16 15 14 9 5 1 nan nan 10 nan nan nan nan nan nan nan nan 15 15 17 19 20 21 21 21 22 23 24 26 27 27 27 25 24 23 21 20 20
4 4 4 3 3 4 4 2 2 2 3 5 3 2 4 6 4 4 4 5 6 6 6 6 5 7 6 8 10 11 10 10 11 13 14 16 16 16 15 13 6 4 4 7 nan nan nan nan 10 nan 13 12 13 12 14 16 18 20 20 20 20 21 21 22 24 nan nan nan 26 25 24 23 21 19
6 5 5 6 6 5 5 4 3 3 4 3 3 4 4 5 5 4 4 5 5 6 6 8 8 8 10 11 9 8 9 10 12 12 13 14 15 14 14 12 11 6 5 4 2 4 nan nan 7 10 10 9 9 11 14 16 17 19 22 21 20 20 21 21 nan nan nan nan nan 24 24 24 22 20
7 7 7 6 7 8 8 6 6 6 6 7 6 6 6 7 8 8 8 8 9 9 10 10 9 11 11 9 10 9 9 9 11 13 13 11 13 13 15 14 11 9 8 9 8 7 6 6 5 4 8 9 9 11 12 14 16 20 23 22 21 20 21 21 nan nan nan nan nan nan nan nan nan 22
11 9 8 7 6 9 8 7 8 8 15 12 12 12 11 11 11 10 11 10 10 10 11 10 11 11 10 10 9 9 10 10 7 9 13 13 12 12 12 14 16 14 11 12 11 12 11 8 10 10 8 7 5 5 9 11 14 20 23 23 23 22 21 21 21 nan nan nan nan nan nan nan nan nan
12 10 10 9 3 4 4 8 11 13 15 15 13 13 13 13 13 14 13 13 12 11 11 11 12 11 11 10 11 11 11 8 11 13 13 12 11 10 11 14 20 18 14 13 14 15 14 11 11 11 9 9 10 8 7 11 16 19 22 23 22 22 21 20 20 nan nan nan nan nan nan nan nan nan
14 13 13 13 8 9 16 19 18 15 14 15 14 14 14 14 15 15 14 15 15 14 13 14 13 13 12 13 14 13 10 13 14 13 13 11 12 12 11 11 15 22 18 14 14 16 17 14 12 14 13 12 12 11 13 17 19 20 21 21 21 20 20 19 19 nan nan nan nan nan nan nan nan nan
16 15 14 14 12 19 19 17 16 14 14 14 14 13 12 12 12 14 15 14 14 14 13 14 14 14 14 14 15 12 13 14 13 13 13 14 13 12 11 12 13 18 19 13 11 12 17 18 16 15 14 15 16 13 16 21 19 20 20 21 22 20 19 19 18 nan nan nan nan nan nan nan nan nan
18 21 23 21 19 17 15 13 17 18 16 15 13 12 12 13 13 13 14 15 14 14 14 13 13 14 14 15 16 17 14 15 14 15 15 15 15 14 12 12 13 15 17 12 10 11 16 17 15 14 15 15 16 15 12 14 20 21 23 23 23 22 21 20 19 18 19 nan nan nan nan nan nan nan
25 25 23 21 19 22 22 20 19 21 18 18 16 16 17 16 15 16 15 14 15 16 15 15 15 17 19 17 19 18 18 16 15 16 16 17 16 14 13 14 14 15 18 16 12 11 15 19 16 15 15 15 17 18 17 15 18 21 21 22 21 22 22 21 20 19 18 18 19 nan nan nan nan nan
26 25 25 27 25 25 23 27 26 21 17 19 18 18 18 18 18 18 19 19 20 20 19 17 17 18 19 19 20 21 21 22 20 18 16 17 17 14 14 16 18 19 22 21 19 14 15 20 19 18 17 16 18 21 17 11 11 16 19 20 19 18 19 20 20 20 19 18 18 19 19 19 nan nan
31 32 34 30 31 32 31 29 29 28 24 23 21 21 20 20 19 19 20 23 25 23 24 22 21 22 23 24 22 22 23 23 23 20 18 19 18 15 14 14 18 20 22 22 20 18 17 19 18 18 20 20 21 21 20 16 11 15 16 15 13 13 14 16 18 19 20 20 19 18 18 19 19 nan
36 32 32 33 30 30 27 31 32 29 26 23 23 23 21 20 20 20 20 18 27 29 27 21 19 19 19 19 19 22 23 23 25 22 19 18 19 18 15 15 16 19 23 22 24 22 19 21 20 18 20 23 23 24 24 22 18 22 21 18 17 17 14 12 12 14 17 18 19 19 19 19 18 17
36 36 38 35 32 31 31 35 33 32 28 24 24 23 22 20 20 21 22 23 25 27 27 23 22 20 21 22 22 22 22 21 29 27 20 20 21 19 18 16 16 17 20 23 26 21 21 21 23 20 19 21 27 27 26 26 24 21 20 18 17 19 18 16 13 13 13 14 16 18 20 20 21 20
35 37 37 41 39 35 32 35 35 34 31 27 27 26 23 22 21 27 28 26 25 24 24 25 24 24 24 24 24 24 21 25 30 31 27 25 25 23 22 22 20 17 22 28 28 21 19 20 23 24 20 19 22 27 28 26 26 26 22 19 19 22 23 20 18 16 14 14 14 16 20 24 27 21
34 36 36 40 42 39 35 33 34 34 33 30 27 27 26 24 24 28 25 24 24 24 24 25 25 24 25 25 26 26 28 29 28 31 32 31 30 30 24 24 24 21 22 28 29 22 20 21 21 25 24 22 20 23 25 27 28 26 23 22 23 22 23 24 22 20 19 18 17 16 19 27 28 23
32 33 34 37 40 40 37 35 35 34 33 31 29 28 26 27 27 27 25 24 23 24 25 26 27 28 29 29 28 28 29 28 29 31 32 33 35 35 29 25 24 23 24 28 30 25 22 23 21 22 23 25 21 18 22 24 27 27 26 25 22 22 23 24 27 27 26 24 21 19 21 25 27 24
35 33 33 34 38 38 37 36 33 31 31 33 31 29 27 25 25 27 27 26 25 26 28 28 30 32 31 30 30 28 28 28 29 30 30 33 33 34 35 30 23 21 21 25 26 25 23 22 23 20 20 20 19 19 16 19 23 26 26 24 23 22 23 23 24 26 28 29 30 30 27 27 25 22
35 33 33 35 39 37 37 37 34 32 32 33 31 26 25 23 28 29 29 28 28 28 29 31 32 31 32 32 32 32 30 30 30 29 29 30 31 32 33 33 31 24 21 21 23 24 24 23 25 23 20 21 19 17 18 18 20 23 22 22 22 21 22 23 24 25 27 30 32 34 33 32 29 24
33 33 34 34 33 33 35 36 36 34 33 32 28 27 26 28 30 31 31 30 30 30 32 32 31 32 34 36 35 33 31 30 29 29 30 31 32 31 30 29 27 26 24 22 22 24 24 23 22 25 23 20 19 19 18 19 20 19 17 19 21 21 22 23 21 22 24 28 28 32 35 33 31 30
26 26 26 26 26 29 31 32 34 34 32 29 28 27 30 33 nan 34 34 34 33 34 34 35 37 39 41 39 37 34 32 31 30 31 33 32 31 30 29 27 27 26 25 25 24 24 23 26 22 22 22 24 20 20 19 17 18 19 20 18 17 22 22 21 21 21 22 24 24 26 29 31 33 32
19 17 16 16 18 21 24 29 32 34 37 39 37 nan nan 37 37 37 37 37 37 38 39 40 41 41 39 38 35 34 34 32 32 35 35 33 30 30 27 27 28 28 27 26 26 28 30 30 24 23 22 22 23 21 20 18 18 21 22 21 19 20 26 27 24 22 21 21 24 25 25 28 29 32
nan nan nan nan nan nan nan nan nan nan nan nan 32 35 36 38 38 37 38 40 42 43 41 nan nan nan nan nan 36 36 nan 35 36 37 36 nan nan nan 30 28 28 29 30 31 31 32 32 30 30 28 24 23 24 26 24 24 21 20 22 23 24 23 23 24 25 24 24 24 25 25 26 30 30 22
nan nan nan nan nan 18 19 20 21 22 22 23 26 28 nan nan nan nan nan nan nan nan nan nan nan nan nan nan nan nan nan nan 35 37 36 36 nan nan nan 31 31 nan nan nan nan 34 33 33 31 30 28 27 24 25 28 28 26 24 23 24 27 28 28 25 23 24 25 25 25 25 27 28 29 27
nan nan nan nan nan 22 23 24 24 25 27 27 26 nan nan nan nan nan nan nan nan nan nan nan nan nan nan nan nan nan nan nan nan 38 nan nan nan 35 34 nan nan nan nan nan nan nan nan nan nan nan nan nan nan 26 27 27 28 29 27 29 33 31 29 28 27 26 27 27 26 26 26 29 31 30
nan nan nan nan 22 28 25 nan nan nan nan nan nan nan nan nan nan nan nan nan nan nan nan nan nan nan nan nan nan nan nan nan nan nan nan nan nan nan nan nan nan nan nan nan nan nan nan nan nan nan nan nan nan nan 29 29 27 28 33 35 33 32 31 31 31 30 30 30 nan nan nan 25 29 32
nan nan nan nan 24 nan nan nan nan nan nan nan nan nan nan nan nan nan nan nan nan nan nan nan nan nan nan nan nan nan nan nan nan nan nan nan nan nan nan nan nan nan nan nan nan nan nan nan nan nan nan nan nan nan nan 33 34 36 nan nan nan nan nan nan nan nan nan nan nan nan nan nan nan 31
nan nan nan nan nan nan nan nan nan nan nan nan nan nan nan nan nan nan nan nan nan nan nan nan nan nan nan nan nan nan nan nan nan nan nan nan nan nan nan nan nan nan nan nan nan nan nan nan nan nan nan nan nan nan nan 44 nan nan nan nan nan nan nan nan nan nan nan nan nan nan nan nan nan 30
nan nan nan nan nan nan nan nan nan nan nan nan nan nan nan nan nan nan nan nan nan nan nan nan nan nan nan nan nan nan nan nan nan nan nan nan nan nan nan nan nan nan nan nan nan nan nan nan nan nan nan nan nan nan nan nan nan nan nan nan nan nan nan nan nan nan nan nan nan nan nan nan 29 30
nan nan nan nan nan nan nan nan nan nan nan nan nan nan nan nan nan nan nan nan nan nan nan nan nan nan nan nan nan nan nan nan nan nan nan nan nan nan nan nan nan nan nan nan nan nan nan nan nan nan nan nan nan nan nan nan nan nan nan nan nan nan nan nan nan nan nan nan nan nan nan nan nan nan
nan nan nan nan nan nan nan nan nan nan nan nan nan nan nan nan nan nan nan nan nan nan nan nan nan nan nan nan nan nan nan nan nan nan nan nan nan nan nan nan nan nan nan nan nan nan nan nan nan nan nan nan nan nan nan nan nan nan nan nan nan nan nan nan nan nan nan nan nan nan nan nan nan nan
nan nan nan nan nan nan nan nan nan nan nan nan nan nan nan nan nan nan nan nan nan nan nan nan nan nan nan nan nan nan nan nan nan nan nan nan nan nan nan nan nan nan nan nan nan nan nan nan nan nan nan nan nan nan nan nan nan nan nan nan nan nan nan nan nan nan nan nan nan nan nan nan nan nan
nan nan nan nan nan nan nan nan nan nan nan nan nan nan nan nan nan nan nan nan nan nan nan nan nan nan nan nan nan nan nan nan nan nan nan nan nan nan nan nan nan nan nan nan nan nan nan nan nan nan nan nan nan nan nan nan nan nan nan nan nan nan nan nan nan nan nan nan nan nan nan nan nan nan
nan nan nan nan nan nan nan nan nan nan nan nan nan nan nan nan nan nan nan nan nan nan nan nan nan nan nan nan nan nan nan nan nan nan nan nan nan nan nan nan nan nan nan nan nan nan nan nan nan nan nan nan nan nan nan nan nan nan nan nan nan nan nan nan nan nan nan nan nan nan nan nan nan nan
nan nan nan nan nan nan nan nan nan nan nan nan nan nan nan nan nan nan nan nan nan nan nan nan nan nan nan nan nan nan nan nan nan nan nan nan nan nan nan nan nan nan nan nan nan nan nan nan nan nan nan nan nan nan nan nan nan nan nan nan nan nan nan nan nan nan nan nan nan nan nan nan nan nan
nan nan nan nan nan nan nan nan nan nan nan nan nan nan nan nan nan nan nan nan nan nan nan nan nan nan nan nan nan nan nan nan nan nan nan nan nan nan nan nan nan nan nan nan nan nan nan nan nan nan nan nan nan nan nan nan nan nan nan nan nan nan nan nan nan nan nan nan nan nan nan nan nan nan
nan nan nan nan nan nan nan nan nan nan nan nan nan nan nan nan nan nan nan nan nan nan nan nan nan nan nan nan nan nan nan nan nan nan nan nan nan nan nan nan nan nan nan nan nan nan nan nan nan nan nan nan nan nan nan nan nan nan nan nan nan nan nan nan nan nan nan nan nan nan nan nan nan nan
Wind_Direction
293 248 248 301 308 312 297 324 318 310 325 334 313 313 290 296 309 318 310 309 310 301 274 298 309 296 299 298 300 306 309 322 359 350 304 309 320 349 10 17 13 13 21 26 36 42 41 32 19 16 20 25 30 33 35 36 33 29 26 23 23 22 17 14 16 22 24 19 17 26 nan nan nan 45
249 269 300 272 269 261 284 280 287 299 315 297 289 280 286 308 319 316 308 300 299 302 301 299 303 292 286 310 322 327 310 316 353 330 302 306 337 358 25 34 36 26 20 23 32 41 41 33 23 18 18 23 28 31 35 38 36 33 29 27 27 22 21 15 15 20 25 23 16 20 30 nan nan nan
316 271 267 268 293 302 297 305 301 312 326 331 290 288 315 315 312 302 300 303 309 298 295 292 281 290 309 297 298 301 290 312 354 329 312 332 353 15 16 35 42 32 17 17 24 38 38 31 28 18 15 18 22 26 29 34 35 33 32 30 28 22 20 18 16 18 23 26 23 17 22 nan nan nan
269 296 300 293 295 293 280 276 284 294 314 303 315 310 306 316 310 305 308 316 319 299 293 304 316 330 290 305 315 304 327 2 67 320 318 337 351 359 1 17 21 21 10 15 19 34 31 30 32 19 12 15 21 23 25 29 29 31 30 28 25 20 18 18 18 19 20 25 28 23 21 26 nan nan
309 288 297 285 277 272 267 281 302 302 323 308 317 341 294 285 293 305 307 320 333 328 316 311 315 309 291 307 316 345 342 351 308 295 329 329 343 351 351 342 338 356 6 8 16 30 22 26 32 20 9 15 19 20 22 25 25 26 27 26 22 18 15 15 17 19 20 22 27 27 23 23 28 nan
278 294 297 289 294 305 310 312 335 340 320 324 318 295 316 323 316 316 313 331 326 329 302 312 329 342 344 351 320 320 15 360 323 323 314 325 331 334 335 345 350 2 5 3 16 28 11 23 nan nan 11 16 18 18 20 22 23 21 20 21 19 16 14 13 14 18 20 20 24 29 27 24 24 nan
313 315 307 326 320 336 330 329 337 323 318 284 289 325 323 335 328 323 315 304 320 320 318 316 337 328 319 321 353 6 355 323 325 318 315 317 323 326 329 338 5 1 357 3 21 nan 1 25 nan nan nan nan 20 18 14 16 18 17 13 14 15 13 12 11 11 14 17 19 22 26 28 24 23 nan
331 345 334 340 329 313 284 282 262 263 271 280 290 270 288 314 315 308 323 316 315 315 341 341 333 318 319 339 359 356 333 333 321 318 320 317 315 322 336 342 1 329 350 9 21 nan nan nan nan nan nan nan nan nan 13 9 11 11 10 9 11 nan nan 9 9 10 13 16 19 22 27 26 23 22
294 304 321 325 324 320 289 286 297 308 334 309 291 306 323 303 288 300 297 323 326 334 357 347 326 321 327 334 342 331 321 318 322 316 317 320 330 338 341 350 348 130 nan nan 21 nan nan nan nan nan nan nan nan 17 14 9 9 5 4 6 7 8 9 8 7 8 9 12 14 17 21 27 26 21
271 274 272 257 257 277 304 290 275 265 233 243 296 340 316 302 287 304 310 316 334 335 331 323 318 311 312 303 298 296 301 308 311 315 320 324 330 336 337 336 343 331 289 271 nan nan nan nan 10 nan 8 17 17 12 14 13 11 359 356 2 4 4 6 7 7 nan nan nan 11 13 15 19 26 23
265 267 274 275 273 266 262 265 272 283 302 302 250 242 239 254 287 295 303 300 297 297 289 287 290 288 290 282 282 294 312 320 319 320 311 317 324 324 323 325 331 317 290 282 1 4 nan nan 293 327 355 4 12 15 14 14 14 351 351 357 1 2 4 5 nan nan nan nan nan 10 11 13 17 23
262 262 264 267 277 278 272 279 272 261 252 264 271 274 265 264 266 266 264 262 263 268 270 276 276 284 288 294 307 312 299 301 301 306 309 309 304 308 313 317 322 323 320 329 318 300 284 281 278 306 325 336 4 16 11 12 12 346 346 351 354 357 359 1 nan nan nan nan nan nan nan nan nan 15
258 254 255 260 277 282 309 334 312 285 271 269 260 253 252 257 258 260 262 265 266 269 276 279 282 289 299 308 311 304 305 294 295 304 293 296 300 296 297 314 321 324 327 325 322 318 311 324 322 309 300 304 322 337 359 354 4 342 343 347 349 351 353 354 356 nan nan nan nan nan nan nan nan nan
268 269 264 260 249 247 315 309 314 307 293 285 281 274 269 264 263 263 263 262 265 269 273 277 280 283 287 292 292 291 288 292 290 280 282 281 288 290 305 313 316 317 324 322 316 317 322 330 326 322 328 320 311 304 310 321 318 333 345 347 345 347 348 348 350 nan nan nan nan nan nan nan nan nan
248 247 256 256 260 289 277 278 289 290 289 288 281 283 282 279 273 271 271 273 271 273 274 276 278 275 275 276 275 276 279 287 279 283 283 290 295 302 302 301 303 311 310 316 313 316 321 328 333 327 328 325 323 325 312 312 324 334 341 342 341 345 347 344 344 nan nan nan nan nan nan nan nan nan
252 248 249 251 248 265 273 266 269 281 290 287 288 288 287 286 288 287 282 275 271 272 273 274 277 274 275 275 277 282 287 283 282 290 297 303 303 302 306 303 300 301 305 312 309 315 317 324 327 322 326 328 322 320 322 333 334 334 334 339 343 346 347 345 344 nan nan nan nan nan nan nan nan nan
260 254 251 248 242 237 242 259 267 273 272 282 290 293 289 287 287 291 296 294 289 279 279 280 282 288 285 285 287 287 289 292 295 296 300 301 302 304 305 305 297 298 299 312 319 313 308 311 317 316 321 323 320 321 326 333 336 335 338 342 345 346 346 345 345 344 342 nan nan nan nan nan nan nan
252 258 258 255 251 248 246 245 242 249 260 267 270 269 271 277 285 293 303 310 315 310 303 302 300 296 292 291 285 287 287 287 290 290 294 293 297 304 310 305 305 306 306 316 318 315 308 309 313 316 315 317 310 306 293 292 323 338 342 344 347 348 345 343 343 343 342 339 337 nan nan nan nan nan
249 249 252 250 247 251 255 248 243 253 248 254 262 269 272 273 273 277 284 292 297 298 299 303 303 296 292 288 282 280 281 284 285 291 295 295 297 302 306 307 308 308 310 316 312 313 305 304 310 314 312 304 303 298 289 287 308 331 337 343 349 348 344 342 342 342 341 340 338 336 337 341 nan nan
249 249 251 253 252 250 251 243 233 240 247 254 256 255 256 261 264 265 265 263 270 273 276 279 280 282 281 282 289 291 289 291 292 289 291 292 293 294 293 294 294 298 299 299 301 304 301 299 305 305 303 301 299 296 299 300 293 305 318 327 336 344 348 346 343 343 341 340 339 337 336 336 339 nan
254 253 254 256 255 256 257 250 239 234 236 255 256 257 254 254 253 257 259 257 274 278 284 287 286 283 284 286 290 294 301 295 290 289 288 292 292 292 286 284 285 289 286 289 293 300 305 299 296 296 297 299 300 299 298 296 292 283 289 301 317 332 343 346 346 343 341 337 335 335 335 335 332 326
255 255 253 256 256 252 250 245 243 237 241 251 254 256 255 256 259 263 260 264 269 269 274 276 276 275 271 272 277 285 288 290 295 296 296 292 290 291 287 283 280 281 285 289 286 290 297 294 294 292 297 300 301 296 297 296 290 287 291 293 310 321 328 337 340 338 336 335 331 329 330 326 310 301
255 256 256 257 258 258 256 253 251 246 245 251 251 253 256 258 258 258 253 258 261 266 267 271 272 274 273 277 280 280 281 295 301 303 305 298 296 293 291 290 285 283 287 286 281 282 289 288 292 291 290 294 296 300 296 293 295 292 289 293 296 312 318 321 328 333 333 328 327 328 325 314 307 300
257 256 258 263 264 267 264 260 255 254 252 255 256 256 258 257 255 255 253 258 261 265 269 272 274 276 277 277 278 279 281 283 290 298 300 299 297 293 294 294 297 296 291 286 282 285 289 292 293 294 298 294 288 289 292 292 291 292 296 295 293 293 303 308 308 320 324 324 328 330 319 311 313 302
254 256 257 260 262 261 259 258 256 254 252 256 261 263 264 261 261 260 260 258 253 266 272 275 277 277 275 274 274 275 278 281 285 289 294 295 294 297 300 299 298 300 296 291 284 284 290 290 292 292 299 304 303 290 285 287 289 292 293 288 286 292 294 298 301 302 309 318 322 321 311 315 321 313
257 258 257 256 262 262 260 258 257 254 259 264 266 267 262 254 255 262 264 263 265 267 269 271 274 272 272 272 275 277 277 278 281 283 289 292 296 299 302 303 298 292 291 291 287 294 294 297 295 294 300 302 303 299 287 283 285 285 284 286 289 290 294 296 298 299 298 299 297 299 306 314 313 321
258 258 255 257 260 258 260 259 258 261 263 266 270 271 268 269 261 264 269 269 268 269 270 270 270 273 276 277 275 273 273 275 278 283 288 290 290 291 293 294 299 301 298 294 297 302 304 302 300 300 301 302 302 299 299 293 286 282 285 285 285 287 289 290 296 300 300 297 296 300 301 304 311 315
262 259 259 259 257 258 259 259 258 258 264 268 265 265 269 267 268 272 272 275 278 278 276 274 275 275 276 276 277 278 278 278 281 285 285 285 284 285 287 291 293 294 292 294 297 302 306 302 298 302 302 296 294 293 293 298 300 294 293 295 295 295 293 293 298 296 297 296 296 294 290 291 293 294
269 263 261 261 262 262 262 263 263 263 264 269 272 273 271 270 nan 275 275 274 276 277 278 278 275 273 273 274 276 276 275 275 280 283 283 280 280 278 280 284 287 287 289 292 294 295 296 295 295 292 296 296 295 297 296 298 295 298 300 297 301 301 298 300 297 294 296 299 297 297 296 294 290 294
257 253 257 257 258 262 268 270 271 269 266 262 265 nan nan 275 276 277 276 276 276 274 273 271 270 271 272 272 273 275 274 276 280 280 278 276 275 274 277 281 285 288 289 287 283 280 283 286 290 288 289 293 297 298 300 297 296 297 298 303 308 305 309 305 300 301 301 302 300 297 293 285 283 292
nan nan nan nan nan nan nan nan nan nan nan nan 266 268 272 275 274 275 278 273 268 268 268 nan nan nan nan nan 276 274 nan 280 281 279 278 nan nan nan 277 280 283 286 287 286 282 280 286 288 287 289 289 290 295 299 300 299 298 293 294 299 299 302 299 297 304 306 306 303 299 301 296 294 294 293
nan nan nan nan nan 263 262 264 270 275 279 275 272 273 nan nan nan nan nan nan nan nan nan nan nan nan nan nan nan nan nan nan 282 281 279 279 nan nan nan 278 280 nan nan nan nan 283 280 285 286 290 294 295 292 291 293 297 295 291 291 292 293 293 290 290 292 296 297 296 297 298 300 299 299 297
nan nan nan nan nan 279 275 277 277 278 278 279 278 nan nan nan nan nan nan nan nan nan nan nan nan nan nan nan nan nan nan nan nan 279 nan nan nan 286 285 nan nan nan nan nan nan nan nan nan nan nan nan nan nan 290 290 291 294 295 293 285 280 278 281 282 284 284 284 285 291 296 298 300 300 300
nan nan nan nan 263 273 278 nan nan nan nan nan nan nan nan nan nan nan nan nan nan nan nan nan nan nan nan nan nan nan nan nan nan nan nan nan nan nan nan nan nan nan nan nan nan nan nan nan nan nan nan nan nan nan 294 293 294 293 287 286 285 284 283 280 277 273 275 279 nan nan nan 290 295 297
nan nan nan nan 265 nan nan nan nan nan nan nan nan nan nan nan nan nan nan nan nan nan nan nan nan nan nan nan nan nan nan nan nan nan nan nan nan nan nan nan nan nan nan nan nan nan nan nan nan nan nan nan nan nan nan 296 289 281 nan nan nan nan nan nan nan nan nan nan nan nan nan nan nan 291
nan nan nan nan nan nan nan nan nan nan nan nan nan nan nan nan nan nan nan nan nan nan nan nan nan nan nan nan nan nan nan nan nan nan nan nan nan nan nan nan nan nan nan nan nan nan nan nan nan nan nan nan nan nan nan 284 nan nan nan nan nan nan nan nan nan nan nan nan nan nan nan nan nan 283
nan nan nan nan nan nan nan nan nan nan nan nan nan nan nan nan nan nan nan nan nan nan nan nan nan nan nan nan nan nan nan nan nan nan nan nan nan nan nan nan nan nan nan nan nan nan nan nan nan nan nan nan nan nan nan nan nan nan nan nan nan nan nan nan nan nan nan nan nan nan nan nan 285 282
nan nan nan nan nan nan nan nan nan nan nan nan nan nan nan nan nan nan nan nan nan nan nan nan nan nan nan nan nan nan nan nan nan nan nan nan nan nan nan nan nan nan nan nan nan nan nan nan nan nan nan nan nan nan nan nan nan nan nan nan nan nan nan nan nan nan nan nan nan nan nan nan nan nan
nan nan nan nan nan nan nan nan nan nan nan nan nan nan nan nan nan nan nan nan nan nan nan nan nan nan nan nan nan nan nan nan nan nan nan nan nan nan nan nan nan nan nan nan nan nan nan nan nan nan nan nan nan nan nan nan nan nan nan nan nan nan nan nan nan nan nan nan nan nan nan nan nan nan
nan nan nan nan nan nan nan nan nan nan nan nan nan nan nan nan nan nan nan nan nan nan nan nan nan nan nan nan nan nan nan nan nan nan nan nan nan nan nan nan nan nan nan nan nan nan nan nan nan nan nan nan nan nan nan nan nan nan nan nan nan nan nan nan nan nan nan nan nan nan nan nan nan nan
nan nan nan nan nan nan nan nan nan nan nan nan nan nan nan nan nan nan nan nan nan nan nan nan nan nan nan nan nan nan nan nan nan nan nan nan nan nan nan nan nan nan nan nan nan nan nan nan nan nan nan nan nan nan nan nan nan nan nan nan nan nan nan nan nan nan nan nan nan nan nan nan nan nan
nan nan nan nan nan nan nan nan nan nan nan nan nan nan nan nan nan nan nan nan nan nan nan nan nan nan nan nan nan nan nan nan nan nan nan nan nan nan nan nan nan nan nan nan nan nan nan nan nan nan nan nan nan nan nan nan nan nan nan nan nan nan nan nan nan nan nan nan nan nan nan nan nan nan
nan nan nan nan nan nan nan nan nan nan nan nan nan nan nan nan nan nan nan nan nan nan nan nan nan nan nan nan nan nan nan nan nan nan nan nan nan nan nan nan nan nan nan nan nan nan nan nan nan nan nan nan nan nan nan nan nan nan nan nan nan nan nan nan nan nan nan nan nan nan nan nan nan nan
nan nan nan nan nan nan nan nan nan nan nan nan nan nan nan nan nan nan nan nan nan nan nan nan nan nan nan nan nan nan nan nan nan nan nan nan nan nan nan nan nan nan nan nan nan nan nan nan nan nan nan nan nan nan nan nan nan nan nan nan nan nan nan nan nan nan nan nan nan nan nan nan nan nan
nan nan nan nan nan nan nan nan nan nan nan nan nan nan nan nan nan nan nan nan nan nan nan nan nan nan nan nan nan nan nan nan nan nan nan nan nan nan nan nan nan nan nan nan nan nan nan nan nan nan nan nan nan nan nan nan nan nan nan nan nan nan nan nan nan nan nan nan nan nan nan nan nan nan